This demonstration page uses our WeatherBlox Daily Observations layout. Learn more.

Left ArrowRight Arrow

Hourly Observations for October 29, 2021

Temp ( °F °C ) Dew Point ( °F °C ) Humidity (%) Winds ( mph kmh ) Pressure ( in mb ) Visibility ( mi km ) Precip ( " mm )
12:15 am 00:15 Clear 43 6.2 28 -2.5 54 54 NW 12 19 30.13 1020 10 16 0.00 0.00
12:35 am 00:35 Clear 42 5.5 28 -2.5 57 57 NW 10 17 30.14 1021 10 16 0.00 0.00
12:55 am 00:55 Clear 41 4.9 28 -2.5 59 59 NW 9 15 30.15 1021 10 16 0.00 0.00
1:15 am 01:15 Clear 41 5.1 28 -2.5 58 58 NW 9 15 30.15 1021 10 16 0.00 0.00
1:35 am 01:35 Clear 41 5.1 28 -2.5 58 58 NNW 9 15 30.14 1021 10 16 0.00 0.00
1:55 am 01:55 Clear 41 4.9 28 -2.5 59 59 NW 10 17 30.15 1021 10 16 0.00 0.00
2:15 am 02:15 Clear 40 4.3 28 -2.5 62 62 NW 10 17 30.15 1021 10 16 0.00 0.00
2:35 am 02:35 Clear 39 3.7 28 -2.3 65 65 NW 10 17 30.16 1021 10 16 0.00 0.00
2:55 am 02:55 Clear 37 3 28 -2.3 68 68 NW 9 15 30.16 1021 10 16 0.00 0.00
3:15 am 03:15 Clear 37 2.6 28 -2.5 69 69 NW 8 13 30.17 1022 10 16 0.00 0.00
3:35 am 03:35 Clear 38 3.2 28 -2.1 69 69 NW 9 15 30.16 1021 10 16 0.00 0.00
3:55 am 03:55 Clear 36 2.3 28 -2.5 71 71 NW 7 11 30.17 1022 10 16 0.00 0.00
4:15 am 04:15 Clear 36 2 28 -2.3 73 73 NW 9 15 30.18 1022 10 16 0.00 0.00
4:35 am 04:35 Clear 36 2 28 -2.3 73 73 WNW 12 19 30.18 1022 10 16 0.00 0.00
4:55 am 04:55 Clear 36 2.2 28 -2.1 74 74 NW 10 17 30.17 1022 10 16 0.00 0.00
5:15 am 05:15 Clear 36 2.3 28 -2.2 72 72 NW 9 15 30.17 1022 10 16 0.00 0.00
5:35 am 05:35 Clear 36 2.2 28 -2.2 73 73 NW 10 17 30.18 1022 10 16 0.00 0.00
5:55 am 05:55 Clear 37 2.6 28 -2.2 71 71 NW 10 17 30.18 1022 10 16 0.00 0.00
6:15 am 06:15 Clear 37 2.8 28 -2.3 69 69 NW 10 17 30.18 1022 10 16 0.00 0.00
6:35 am 06:35 Clear 37 2.7 28 -2.3 70 70 NW 9 15 30.18 1022 10 16 0.00 0.00
6:55 am 06:55 Clear 37 2.8 28 -2.4 69 69 NW 9 15 30.18 1022 10 16 0.00 0.00
7:15 am 07:15 Clear 37 2.5 28 -2.3 71 71 NW 8 13 30.18 1022 10 16 0.00 0.00
7:35 am 07:35 Clear 36 2 28 -2.4 73 73 NW 8 13 30.20 1023 10 16 0.00 0.00
7:55 am 07:55 Clear 35 1.4 28 -2.5 76 76 NW 9 15 30.20 1023 10 16 0.00 0.00
8:15 am 08:15 Sunny 35 1.5 28 -2.4 76 76 WNW 8 13 30.21 1023 10 16 0.00 0.00
8:35 am 08:35 Sunny 35 1.7 28 -2 77 77 NW 9 15 30.21 1023 10 16 0.00 0.00
8:55 am 08:55 Sunny 37 2.9 29 -1.6 73 73 NW 9 15 30.21 1023 10 16 0.00 0.00
9:15 am 09:15 Sunny 39 4 30 -1.3 69 69 NW 10 17 30.21 1023 10 16 0.00 0.00
9:35 am 09:35 Sunny 41 5.1 30 -0.9 66 66 NW 8 13 30.20 1023 10 16 0.00 0.00
9:55 am 09:55 Sunny 44 6.4 31 -0.6 61 61 NW 8 13 30.18 1022 10 16 0.00 0.00
10:15 am 10:15 Sunny 46 7.9 31 -0.5 56 56 NNW 8 13 30.17 1022 10 16 0.00 0.00
10:35 am 10:35 Sunny 48 8.8 31 -0.3 53 53 NNW 7 11 30.15 1021 10 16 0.00 0.00
10:55 am 10:55 Sunny 49 9.7 30 -1 48 48 NNW 8 13 30.15 1021 10 16 0.00 0.00
11:15 am 11:15 Sunny 51 10.6 29 -1.5 43 43 N 8 13 30.14 1021 10 16 0.00 0.00
11:35 am 11:35 Sunny 52 11.3 28 -2.2 39 39 N 8 13 30.13 1020 10 16 0.00 0.00
11:55 am 11:55 Sunny 53 11.8 28 -2.5 37 37 N 9 15 30.12 1020 10 16 0.00 0.00
12:15 pm 12:15 Sunny 54 12.3 29 -1.9 38 38 N 6 9 30.11 1020 10 16 0.00 0.00
12:35 pm 12:35 Sunny 55 12.6 28 -2.3 36 36 NNW 8 13 30.10 1019 10 16 0.00 0.00
12:55 pm 12:55 Sunny 55 13 28 -2.3 35 35 N 6 9 30.09 1019 10 16 0.00 0.00
1:15 pm 13:15 Sunny 56 13.5 28 -2.4 33 33 N 6 9 30.07 1018 10 16 0.00 0.00
1:35 pm 13:35 Sunny 57 14 28 -2.5 32 32 NNW 6 9 30.06 1018 10 16 0.00 0.00
1:55 pm 13:55 Sunny 58 14.4 28 -2.4 32 32 NNW 7 11 30.04 1017 10 16 0.00 0.00
2:15 pm 14:15 Sunny 58 14.7 27 -2.6 30 30 NNW 9 15 30.03 1017 10 16 0.00 0.00
2:35 pm 14:35 Sunny 59 15.1 27 -2.7 29 29 NNW 5 7 30.02 1017 10 16 0.00 0.00
2:55 pm 14:55 Sunny 59 15.2 27 -2.9 29 29 WNW 6 9 30.01 1016 10 16 0.00 0.00
3:15 pm 15:15 Sunny 60 15.5 26 -3.3 27 27 NNW 5 7 29.99 1016 10 16 0.00 0.00
3:35 pm 15:35 Sunny 60 15.7 26 -3.4 27 27 NW 5 7 29.99 1016 10 16 0.00 0.00
3:55 pm 15:55 Sunny 60 15.6 26 -3.1 28 28 NW 3 6 29.98 1015 10 16 0.00 0.00
4:15 pm 16:15 Sunny 61 16 26 -3.5 26 26 NW 3 6 29.97 1015 10 16 0.00 0.00
4:35 pm 16:35 Sunny 61 16 26 -3.5 26 26 Calm 29.97 1015 10 16 0.00 0.00
4:55 pm 16:55 Sunny 61 16 26 -3.3 27 27 Calm 29.97 1015 10 16 0.00 0.00
5:15 pm 17:15 Sunny 61 16 26 -3.4 26 26 Calm 29.96 1015 10 16 0.00 0.00
5:35 pm 17:35 Sunny 60 15.5 31 -0.7 33 33 Calm 29.95 1014 10 16 0.00 0.00
5:55 pm 17:55 Sunny 60 15.3 28 -2.1 30 30 Calm 29.96 1014 10 16 0.00 0.00
6:15 pm 18:15 Sunny 58 14.5 30 -1.3 34 34 Calm 29.96 1015 10 16 0.00 0.00
6:35 pm 18:35 Sunny 54 12 32 0.1 44 44 ESE 3 6 29.98 1015 10 16 0.00 0.00
6:55 pm 18:55 Clear 52 11.3 30 -1 43 43 Calm 29.98 1015 10 16 0.00 0.00
7:15 pm 19:15 Clear 50 10.1 32 -0.1 49 49 Calm 29.99 1016 10 16 0.00 0.00
7:35 pm 19:35 Clear 49 9.7 32 -0.2 50 50 SSE 3 6 29.99 1015 10 16 0.00 0.00
7:55 pm 19:55 Clear 49 9.7 29 -1.5 46 46 S 3 6 29.99 1015 10 16 0.00 0.00
8:15 pm 20:15 Clear 47 8.5 29 -1.4 50 50 Calm 30.00 1016 10 16 0.00 0.00
8:35 pm 20:35 Clear 46 7.9 30 -1.3 53 53 Calm 29.99 1016 10 16 0.00 0.00
8:55 pm 20:55 Clear 46 7.6 30 -1.3 54 54 S 5 7 29.99 1016 10 16 0.00 0.00
9:15 pm 21:15 Clear 46 7.6 28 -2 51 51 S 3 6 29.98 1015 10 16 0.00 0.00
9:35 pm 21:35 Clear 46 7.9 28 -2.5 48 48 S 5 7 29.98 1015 10 16 0.00 0.00
9:55 pm 21:55 Clear 46 7.8 28 -2.5 48 48 S 5 7 29.97 1015 10 16 0.00 0.00
10:15 pm 22:15 Clear 46 7.8 27 -2.7 48 48 S 5 7 29.98 1015 10 16 0.00 0.00
10:35 pm 22:35 Clear 45 7.3 27 -2.6 50 50 S 5 7 29.99 1015 10 16 0.00 0.00
10:55 pm 22:55 Clear 42 5.3 29 -1.8 61 61 S 3 6 30.00 1016 10 16 0.00 0.00
11:15 pm 23:15 Clear 42 5.7 28 -2.1 58 58 S 3 6 29.98 1015 10 16 0.00 0.00
11:35 pm 23:35 Clear 44 6.4 28 -2.3 54 54 S 3 6 29.98 1015 10 16 0.00 0.00
11:55 pm 23:55 Clear 45 7.3 27 -2.6 50 50 S 6 9 29.97 1015 10 16 0.00 0.00

Powered by AerisWeather